Regional Weather Roundup
Issued by NWS Bismarck, ND

Home | Current Version | Previous Version | Text Only | Print | Product List | Glossary On
Versions: 1 2 3 4 5 6 7 8 9 10 11 12 13 14 15 16 17 18 19 20 21 22 23 24 25 26 27 28 29 30 31 32 33 34 35 36 37 38 39 40 41 42 43 44 45 46 47 48 49 50
000
ASUS43 KBIS 180459
RWRBIS

NWR BROADCAST TEXT
NATIONAL WEATHER SERVICE BISMARCK ND
1200 AM CDT FRI APR 18 2014

NOTE: "FAIR" INDICATES FEW OR NO CLOUDS BELOW 12,000 FEET WITH NO
SIGNIFICANT WEATHER AND/OR OBSTRUCTIONS TO VISIBILITY.


CITY           SKY/WX    TMP DP  RH WIND       PRES   REMARKS
WILLISTON      MOCLDY    39  26  59 SE10      30.00F
MINOT          CLOUDY    35  21  56 E13       30.12S
MINOT AFB      NOT AVBL
BISMARCK       CLEAR     31  23  72 SE7       30.13F
DICKINSON      NOT AVBL
GARRISON         N/A     35  24  64 SE10      30.09F
HETTINGER ARPT MOCLDY    34  25  69 E12       30.01F
JAMESTOWN      NOT AVBL
CARRINGTON     CLOUDY    32  21  64 SE13G20   30.22R
CROSBY         FAIR      30  27  86 E12       30.04S
HARVEY         CLOUDY    34  23  64 SE16G22   30.17S
LINTON         FAIR      34  23  64 SE9       30.13F
OAKES          CLOUDY    34  23  64 E9        30.22F
RUGBY          MOCLDY    32  18  55 SE18      30.18S
$$

CITY           SKY/WX    TMP DP  RH WIND       PRES   REMARKS
GRAND FORKS    CLOUDY    33  21  61 NE6       30.29F
GRAND FORKS AF NOT AVBL
DEVILS LAKE    CLOUDY    34  16  47 E16       30.23S
FARGO          CLOUDY    34  20  56 NE8       30.28F
GRAFTON        FAIR      28  19  69 E8        30.30S
GWINNER        CLOUDY    32  25  74 E5        30.26F
$$

CITY           SKY/WX    TMP DP  RH WIND       PRES   REMARKS
ABERDEEN       CLOUDY    36  20  52 SE9       30.21F
MOBRIDGE       PTCLDY    33  22  63 SE15      30.10F
RAPID CITY     MOCLDY    40  33  76 SE9       29.96F
GLASGOW        MOCLDY    44  32  62 E22       29.81F
SIDNEY         CLOUDY    43  28  56 SE9       29.97F
WOLF POINT     LGT RAIN  46  30  53 E14       29.88F
GLENDIVE       CLOUDY    46  28  49 SE13G20   29.91F
MILES CITY     CLOUDY    50  35  56 SE17      29.83F
BAKER          CLOUDY    43  32  65 SE22G29   29.91F
$$

CITY           SKY/WX    TMP DP  RH WIND       PRES   REMARKS
BILLINGS       MOCLDY    54  32  43 SE7       29.76F
GREAT FALLS    LGT RAIN  47  42  83 E10       29.71F
$$




USA.gov is the U.S. government's official web portal to all federal, state and local government web resources and services.